IRIDIUM 43 [-]

Last updated on Feb. 12, 2018, 12:19 a.m. UTC

1 25039U 97069A   18042.52217099  .30422284 -12919-5  23927-3 0  9999
2 25039  86.3528 257.4987 0011688 182.9697 178.7481 16.52305555 63968

Satellite is not in orbit.